JILIN-01 GAOFEN 3J (46462 NORAD) Tracking and Keplerian Element Data

This shows tracking and keplerian element data for the satellite.

Feedback or suggestion? Click here.




ElementValue
Catalog46462
NameJILIN-01 GAOFEN 3J
Epoch Orbit128
Epoch Day267.53728052
Epoch Year2020
RAAN323.0582
Inclination97.5371
Eccentricity0.0013499
Argument of Perigee265.0796
Mean Anonmoly200.7311
Mean Motion15.09617269
Decay Rate-6.2E-07
L11 46462U 20065J 20267.53728052 -.00000062 00000-0 96131-7 0 9990
L22 46462 97.5371 323.0582 0013499 265.0796 200.7311 15.09617269 1281

Live tracking and technical data element details for JILIN-01 GAOFEN 3J (NORAD 46462). JILIN-01 GAOFEN 3J can be tracked NOW for your location showing map with azimuth and elevation plus other details from your city location.

Track the satellite on the map from your city or location and see movement details for azimuth, elevation, latitude, longitude, range, height, and movement on the map or in text.







IsCatalogInMostPopularTable: catalog: 46462, numindb: 2
Update: records affected: 1



GetName: 46462 JILIN-01 GAOFEN 3J

Hit Count: updated at: Sat, 26 Sep 2020 14:54:03 GMT